C/2008 P1 (Garradd)
Epoch 2009 July 28.0 TT = JDT 2455040.5  
T 2009 July 22.92732 TT                                 Nakano
q   3.8961546            (2000.0)            P               Q
z  -0.0004676      Peri.   11.86111     +0.98145647     -0.18817188
 +/-0.0000020      Node   357.67666     -0.02839057     +0.04577823
e   1.0018218      Incl.   64.30884     +0.18957102     +0.98106865
From 497 observations 2008 Aug. 13-2009 Aug. 31, mean residual 0".60.
   (1/a)org.= +0.000125, (1/a)fut.= +0.000215 (+/-0.000002), Q= 8.
Residuals in seconds of arc 
2008/                     081225 J24 (0.6+  2.1+)   090805 B18  0.6+  0.5+  
080813 E12  1.0-  0.5-    081225 J24  0.9-  0.0     090805 B18  0.4+  0.4+  
080813 E12  0.4-  0.8-    081225 J24  0.5-  0.6+    090805 B18  0.3+  0.3+  
080813 E12  0.7-  0.2-    081226 423  0.4-  0.4+    090805 B18  0.1+  0.3+  
080813 E12  0.4-  0.0     081226 423  0.4+  0.2-    090805 204  0.3+  0.3+  
080813 E12  0.8-  0.8-    081227 D88  0.5+  0.8-    090805 J51  0.2-  0.4-  
080813 E12  1.0-  0.6-    081227 D88  0.6+  0.3-    090805 J51  0.2-  0.3-  
080813 E12  0.2-  0.6-    081227 D88  0.6+  0.1-    090805 J51  0.0   0.1-  
080813 E12  1.2-  1.0-    2009/                     090805 H10  0.6+  0.1+  
080813 E12  0.7-  0.2-    090101 204  0.3+  0.6+    090805 H10  0.5+  0.3+  
080814 I77  0.0   0.2-    090101 204  0.2+  1.0+    090805 H10  0.3+  0.2+  
080814 I77  0.1+  0.1-    090103 349  1.1+  0.3-    090806 J40  1.3-  0.2-  
080814 I77  0.2+  0.3-    090103 349  1.0+  0.1-    090806 J40  1.8+  0.4+  
080814 E94 (0.9-  4.9+)   090103 J47  0.3-  0.5+    090806 J40 (2.1+  0.4+) 
080814 E94 (1.7-  3.4+)   090103 J47  0.3-  0.5+    090809 J24  0.0   1.2+  
080814 E94  1.9+  1.5+    090103 J47  0.3-  0.0     090809 J24  0.2+  0.7+  
080814 E94  0.3+  0.9-    090103 J47  0.3-  0.7+    090809 J24  0.6-  0.8+  
080814 E94 (5.5-  0.3-)   090112 D88  1.3+  1.5-    090811 349  0.0   0.8+  
080814 F85  0.9+  0.4-    090112 D88  0.7+  1.4-    090811 349  0.1+  0.7+  
080814 F85  0.2+  0.3+    090112 D88  0.3+  1.3-    090813 212  0.1-  0.1-  
080815 808  1.7+  0.4-    090112 215  0.9+  0.3+    090813 212  0.4+  0.6+  
080815 808  0.4+  0.1+    090112 215  0.8+  0.1+    090813 212  0.6-  0.7+  
080815 I77  0.1+  0.2-    090112 215  0.6+  0.1+    090813 J05  0.2+  0.1+  
080815 808  1.1+  0.9-    090114 467  0.3+  0.3-    090813 J05  0.3+  0.0   
080815 I77  0.1-  0.2-    090114 467  0.2+  0.0     090813 J05  0.3+  0.3-  
080815 I77  0.1+  0.3-    090114 467  0.1+  0.1+    090813 H45  0.6+  0.1+  
080815 808  0.9+  0.1-    090121 J24  1.3+  1.8+    090813 H45  0.0   0.2+  
080815 808  1.5+  0.5-    090121 J24 (2.3+  1.6+)   090813 H45  0.0   0.0   
080815 808  0.9+  0.6-    090121 J24 (2.5+  0.6+)   090813 H45  0.5+  0.7+  
080815 808  0.3+  1.2+    090125 349  0.0   0.0     090813 H45  0.7+  0.8+  
080815 808  0.2+  0.6+    090125 349  0.1-  0.2-    090813 H45  0.5+  0.6-  
080815 808 (2.4+  1.2+)   090125 349  0.5+  0.3+    090813 H47  0.6-  0.8-  
080815 808  1.5+  0.1-    090603 H06  0.5-  1.1-    090813 H47  0.7-  0.3-  
080818 E12  0.6+  0.2-    090603 H06 (1.6-  2.3-)   090813 H47  0.9-  0.7-  
080818 E12  0.6+  0.2-    090613 B74  1.0-  1.3-    090814 J51  0.2-  0.7-  
080823 423  0.2+  0.2-    090613 B74  0.2+  0.3-    090814 J51  0.1-  0.8-  
080823 423  0.1-  1.2-    090613 B74  0.3+  0.4+    090814 J51  0.2+  0.4-  
080825 423  0.4-  0.5+    090620 J24  0.2+  1.8+    090814 900  0.2+  0.0   
080825 423  0.2-  0.4+    090620 J24  0.4+  1.3+    090814 900  0.3+  0.0   
080827 E12  0.5-  0.2-    090620 J24  0.6+  1.4+    090814 235  0.0   0.5-  
080827 E12  0.7-  0.6-    090621 J51  0.9-  0.7-    090815 J53  0.7-  1.0+  
080827 E12  0.9-  0.6-    090621 J51  0.0   0.2-    090815 J53  0.3-  1.2+  
080827 E12  0.6-  0.1-    090621 J51  0.2+  0.4+    090815 J53  0.2-  1.2+  
080828 423  0.2+  0.3-    090626 J51  1.3-  1.2-    090815 J38  0.3+  0.1+  
080828 423  0.3-  0.1-    090626 J51  1.0-  1.1-    090815 J38  0.3+  0.1+  
080829 423  0.1+  0.2+    090626 J51  1.0-  1.0-    090815 J38  0.3+  0.1+  
080829 423  0.2-  0.1+    090626 349  1.1+  1.1-    090815 703  1.0-  1.5-  
080831 423  0.1-  0.0     090626 349  1.6+  0.8-    090815 703  0.7-  1.3-  
080831 423  0.2-  0.1+    090626 900  0.4+  0.3-    090815 703  1.1-  1.6-  
080901 423  0.1-  0.2+    090626 900  0.9+  0.2-    090815 703  0.4-  0.7-  
080901 423  0.1-  0.2+    090701 H45  0.2+  0.1-    090815 B69  0.7-  0.9-  
080902 423  0.1-  0.1-    090701 H45  0.2+  0.3-    090815 A71  0.2-  0.6-  
080902 423  0.1-  0.1+    090701 H45  0.2+  0.0     090815 A71  0.6-  0.9-  
080907 E12  0.2+  0.4-    090701 H45  0.1+  0.2-    090815 A71  0.1-  0.3-  
080909 423  0.3-  0.1+    090701 H45  0.1+  0.4-    090815 B42  0.5+  0.4+  
080909 423  0.1-  0.0     090706 E16  0.6+  0.5+    090815 B42  0.7+  1.3+  
080910 423  0.5-  0.5+    090706 E16  1.6+  0.5-    090815 B42  0.7+  1.2+  
080910 423  0.0   0.5+    090706 585 (2.4+  0.0 )   090816 B59  0.6+  0.3+  
080916 I32  0.6-  0.1+    090707 585  0.7+  0.4-    090816 B59  1.5+  0.9-  
080917 E16  0.1-  0.3-    090707 585  0.1+  1.3+    090816 B59  0.1+  0.0   
080917 415  0.1+  0.5-    090707 585  0.1-  0.3-    090816 213  0.6-  0.6-  
080917 415  0.1+  0.3-    090710 585  1.4+  0.1-    090816 213  0.2+  0.2+  
080919 423  0.2-  0.1-    090710 585  0.5+  0.2+    090816 213  0.1-  0.0   
080919 423  0.3+  0.7-    090710 585  0.9-  0.4-    090817 J08  0.9+  1.2+  
080920 423  0.0   0.1+    090711 J05  0.4-  0.4-    090817 J10  1.7-  1.7-  
080920 423  0.2-  0.2+    090711 J05  0.9-  1.0-    090817 232  0.4-  0.7-  
080921 423  0.0   0.4+    090713 204  0.2+  0.3+    090817 J10  0.4-  0.9-  
080921 423  0.1-  0.3+    090713 J05  1.0+  0.6+    090817 232  0.4-  0.4-  
080921 415  0.1-  0.0     090713 204  0.0   0.4-    090817 232  0.3-  0.5-  
080921 415  0.1-  0.4-    090713 J05  0.0   0.7-    090817 J10  0.2-  0.6-  
080923 423  0.5-  0.4+    090717 A71  0.5-  0.6-    090818 J08  0.9-  1.9+  
080923 423  0.4-  0.4+    090717 A71  0.1+  0.7-    090818 J08  0.3+  1.7+  
080924 423  0.1-  0.3+    090717 A71  0.2-  0.7-    090818 J08  0.1+  1.2+  
080924 423  0.2-  0.3+    090717 A71  0.4-  0.4-    090818 235  0.3-  0.3-  
080924 415  0.0   0.2-    090717 A71  1.8-  1.7-    090818 J38  0.6+  0.3+  
080924 415  0.2-  0.1-    090717 J08  0.3+  1.8+    090819 J38  0.4+  0.4+  
080925 467  0.2-  0.2-    090718 B70 (2.5-  2.5-)   090819 J38  0.5+  0.5+  
080925 467  0.0   0.4-    090718 B70  0.9+  0.1-    090819 B70  0.2+  0.7-  
080925 467  0.1-  0.4-    090718 235 (1.1-  3.2-)   090819 B70  0.1-  0.5-  
080925 423  0.0   0.1-    090718 B70  0.7-  1.0-    090819 B70  0.5-  0.3-  
080925 423  0.2-  0.2-    090719 130  0.1-  0.4-    090819 J10  0.6+  0.4+  
080926 E16  0.4+  0.2-    090719 130  0.4+  0.2+    090819 J10  0.0   0.0   
080926 E16  0.2+  0.1-    090719 939  0.3-  0.9-    090819 J10  0.0   0.1-  
080926 423  0.2-  0.0     090719 130  0.3+  0.0     090820 B06  0.7+  0.5-  
080926 423  0.2-  0.0     090719 130  0.3+  0.0     090820 B06 (4.6+  4.1+) 
080927 423  0.0   0.4-    090719 939  0.3-  1.1-    090820 B06 (0.0   2.7-) 
080927 423  0.1-  0.4-    090719 939  0.6-  1.3-    090820 B06 (4.6-  1.6-) 
081001 423  0.1-  0.0     090719 J53  0.1+  1.0+    090820 B06  0.0   1.8+  
081001 423  0.0   0.1-    090719 J53  0.1-  0.7+    090820 B06  0.8-  1.9+  
081002 423  0.1-  0.2-    090719 J53  0.0   0.9+    090820 B06  0.7+  0.4+  
081002 423  0.4+  0.4-    090719 J51  0.5-  0.3-    090820 B06  1.7+  0.6+  
081004 D90  0.1+  1.5+    090719 J51  0.4-  0.9-    090820 B06  1.7+  0.3-  
081004 D90  0.0   0.1-    090719 J51  0.1-  1.0-    090820 235  0.1-  0.4-  
081004 D90  0.1-  0.3+    090719 349  0.3-  0.1-    090820 B70  0.2-  0.2-  
081004 D90  0.2-  0.3+    090719 349  0.7-  0.6-    090820 B70  0.3-  0.1-  
081007 I32  0.2-  0.2-    090719 349  0.6-  0.6-    090821 B42  0.1+  1.7+  
081007 423  0.1+  0.3+    090720 I68  0.7+  0.4+    090821 B42  0.3+  1.6+  
081007 423  0.1-  0.2+    090720 I68  0.4+  0.4+    090821 B42  0.3-  1.3+  
081008 423  0.2-  0.0     090720 I68  0.6+  0.1+    090822 939  0.8-  0.9-  
081008 423  0.1-  0.4+    090720 I68  0.4+  0.1+    090822 939  0.8-  0.7-  
081008 E16  0.4-  0.3-    090720 I68  0.8+  0.3+    090822 939  0.8-  0.4-  
081008 E16  0.2-  0.4-    090720 H06  0.8-  1.1-    090822 J38  0.4+  0.4+  
081008 E16  0.2-  0.1+    090720 H06  0.9-  0.9-    090822 J38  0.4+  0.1-  
081008 E16  0.3-  0.3-    090720 H06  0.7-  0.7-    090822 J38  0.0   0.2+  
081010 J24  1.4-  0.2-    090720 H06  1.1-  0.8-    090822 J47  0.1+  1.1-  
081010 J24  1.6-  0.9+    090721 212  1.2+  1.6-    090822 J47  0.0   0.1-  
081010 J24  0.5-  1.6+    090721 215  0.3+  0.4-    090822 J47  0.4-  0.5-  
081018 900  0.2-  0.1-    090721 215  0.2+  0.3-    090822 H47  0.2-  0.1-  
081018 900  0.3+  1.2+    090721 215  0.1+  0.5-    090822 H47  0.6-  0.5-  
081019 E12  0.2-  0.2-    090723 704  1.6-  1.1-    090822 H47  0.1-  0.6-  
081021 E85  0.3-  0.3-    090723 704  0.2+  1.0+    090822 213  0.3-  0.5-  
081021 E85  0.2-  0.2-    090723 704  0.5+  0.8+    090822 213  0.2+  0.3-  
081021 E85  0.3-  0.3-    090723 704  0.5-  0.5-    090822 213  0.4-  0.4+  
081021 900 (3.2+  3.9+)   090723 704 (2.2-  1.6-)   090823 H45  0.4+  0.4+  
081021 900  0.3-  1.3+    090724 H45  0.1+  0.1+    090823 H45  0.1+  0.4+  
081027 423  0.3+  0.2-    090724 H45  0.4+  0.2-    090823 H45  0.4+  0.4+  
081027 423  0.5+  0.0     090724 H45  0.5+  0.2+    090823 H45  0.2+  0.1+  
081101 349  0.0   1.3+    090724 H45  0.1+  0.3-    090823 H45  0.3+  0.3+  
081101 349 (0.7-  2.0+)   090724 H45  0.2+  0.1-    090823 H45  0.3+  0.6+  
081105 423  0.4+  0.2+    090724 H45  0.5+  0.4+    090823 J05  0.3+  0.2+  
081105 423  0.6+  0.9-    090724 H45  0.9+  0.4+    090824 J05  0.4+  0.8+  
081116 E16  0.5-  0.5+    090725 J51  0.8-  1.0-    090824 J05  0.0   0.6+  
081116 E16 (0.5+  2.2+)   090725 J51  0.7-  1.3-    090824 H45  0.0   0.2-  
081123 349  0.2-  0.8+    090725 J51  1.0-  1.1-    090824 H45  0.2+  0.2+  
081123 349  0.6-  0.4+    090725 704 (0.9-  2.3-)   090824 H45  0.1-  0.5+  
081123 367  0.0   0.4+    090725 704  0.6-  0.8-    090824 H45  0.0   0.1-  
081123 367  0.2+  0.4-    090725 704  0.1+  0.1-    090824 H45  0.2+  0.5+  
081123 900  0.2-  1.2+    090725 H47  0.7-  0.2-    090824 H45  0.2-  0.2+  
081123 367  0.8+  0.5+    090725 H47  1.1-  0.7-    090824 900  0.0   0.0   
081123 900 (2.1-  0.9+)   090725 H47  0.4-  0.2+    090824 900  0.2+  0.0   
081123 367  0.6+  0.1-    090725 704  0.6-  0.3-    090825 J47  0.0   0.1-  
081123 E12  0.0   0.3+    090726 J05  0.0   0.3+    090825 J47  0.5-  0.6-  
081128 372  0.2-  0.6+    090726 J51  1.5-  1.7-    090825 J47  0.1-  0.3+  
081128 372  0.3-  0.3-    090726 J51  1.1-  1.4-    090825 900  0.1+  0.1+  
081129 349  0.7+  0.1+    090726 J05  0.1-  0.0     090825 900  0.0   0.6-  
081129 349  0.6+  0.0     090726 J05  0.0   0.1+    090825 400  0.3+  0.2+  
081129 349  0.4+  0.2-    090726 J51  0.7-  0.7-    090825 400  0.3+  0.1+  
081129 D90  0.1-  0.3+    090727 561  0.8+  0.8+    090825 400  0.4+  0.1+  
081130 372  0.6-  0.8+    090727 561  0.4+  0.9+    090825 A71  0.2-  0.3+  
081130 372  0.0   0.4+    090727 561  0.2-  0.1+    090825 A71  0.0   0.3+  
081130 423  0.3+  0.3+    090728 561  0.7+  0.7+    090825 A71  0.1-  0.1-  
081130 423  0.6+  0.0     090728 561  0.4+  0.5+    090825 J40  0.2-  0.4+  
081130 E12  0.1-  0.5+    090728 561  0.6+  0.8+    090825 J40  0.1+  0.1-  
081130 415  0.3-  0.5+    090728 A71  0.0   0.5-    090826 J40  0.5-  0.0   
081130 415  0.2-  0.7+    090728 A71  0.4-  0.3-    090826 J47  0.4+  0.4+  
081203 E85  0.2-  0.2+    090728 A71  0.8-  0.4-    090826 J47  0.1+  0.0   
081203 E85  0.2-  0.3+    090730 212  0.2+  1.3-    090826 J47  0.1-  0.1-  
081203 E85  0.4-  0.1+    090730 212 (2.1-  2.6-)   090827 J40  0.9-  0.1-  
081205 423  0.6+  0.1-    090730 212 (0.2+  2.0-)   090827 J40  0.8-  0.1-  
081205 423  0.7+  0.0     090730 H06  0.3-  0.9-    090827 J40  0.4-  0.1+  
081206 900  0.4+  0.4+    090730 H06  0.4-  1.1-    090827 H45  0.5+  0.5+  
081206 900  0.2+  0.3+    090801 212  0.1+  0.2-    090827 H45  0.2+  0.3+  
081208 E16  0.6-  0.2-    090801 212  0.4-  0.4-    090827 H45  0.2+  0.1+  
081208 E16  0.2+  0.5+    090801 212  0.2+  0.3-    090827 H45  0.2-  0.2+  
081213 J47  0.1+  0.5+    090801 235  0.3+  0.1-    090827 H45  0.3+  0.3+  
081215 423  0.3+  0.3+    090802 212  0.2+  0.2+    090827 H45  0.5+  0.5+  
081215 423  0.2+  0.0     090802 212  0.4+  0.1-    090827 704  1.0-  1.1-  
081216 367  0.1+  0.5+    090802 212  0.0   0.3-    090827 704 (3.2-  4.1-) 
081216 367  0.4-  0.6+    090803 212  0.2-  0.2-    090827 704 (1.8-  3.0-) 
081216 367  0.3-  0.9+    090803 212  0.1+  0.2-    090828 J40  0.2-  0.4+  
081216 423  0.3+  0.2+    090803 212  0.4-  0.5-    090828 J40  0.2-  0.4+  
081216 423  0.5+  0.0     090803 H10  0.4+  0.5-    090828 J40  0.1+  0.7+  
081216 J47  0.0   0.6+    090803 H10  0.1+  0.2+    090828 B74  0.9-  1.1-  
081216 J47  0.1+  0.5+    090803 H10  0.4+  0.0     090828 B74  0.8-  0.8-  
081216 J47  0.2+  0.6+    090804 H47  0.1+  0.2-    090828 B74  0.4-  0.0   
081216 J47  0.3+  0.5+    090804 H47  0.8+  0.3-    090828 B42  0.5-  1.9+  
081219 204  0.1-  0.4-    090804 H47  0.7-  1.2-    090828 B42  0.3-  1.9+  
081219 204  0.0   0.2+    090804 204  0.1-  0.2-    090828 B42  0.4-  1.6+  
081220 423  1.0+  0.6-    090805 B18  0.1+  0.2+    090831 H45  0.3+  0.6+  
081220 423  0.4+  0.2-    090805 B18  0.7+  0.5+    090831 H45  0.3+  0.5+  
081221 349  0.3+  0.2-    090805 B18  0.4+  0.0     090831 H45  0.3+  1.0+  
081221 349  0.8+  0.1+    090805 B18  0.6+  0.3+    090831 H45  0.0   0.7+  
081221 E16  0.2+  0.4+    090805 B18  0.5+  0.4+    090831 H45  0.1+  0.2+  
081225 423  0.4+  0.2-    090805 B18  0.4+  0.6+    090831 H45  0.1+  0.5+  
081225 423  0.2+  0.1+    090805 B18  0.5+  0.8+                            

